RH
100 100 86 56 54 67 86 82 72 93 92 75 60 50 56 51 49 52 57 58 55 55 61 57 54 57 55 63 67 68 63 73 68 68 64 59 43 36
100 83 71 57 54 65 68 71 78 82 84 67 61 63 60 60 56 56 64 64 60 56 57 59 56 62 66 73 61 68 66 72 74 63 55 46 37 30
84 84 71 58 58 61 73 80 75 81 73 72 68 72 75 71 64 64 66 59 55 62 66 63 60 64 86 62 62 78 77 71 58 53 49 40 35 26
93 96 88 64 60 60 78 80 81 85 86 79 73 76 74 69 65 62 59 48 47 62 58 59 69 82 63 74 81 84 60 55 54 55 43 39 30 25
92 77 82 76 75 66 79 81 77 88 84 77 93 83 65 62 53 52 52 51 58 75 81 82 70 76 76 84 78 60 52 53 51 47 43 28 26 31
88 71 76 78 100 82 70 78 78 85 84 85 81 80 76 72 63 58 64 74 93 92 77 74 84 85 80 81 63 53 54 54 52 42 34 26 31 35
80 87 80 100 100 94 87 72 85 95 90 83 79 92 84 84 85 92 98 86 84 87 84 83 81 79 70 57 58 55 53 54 44 35 25 31 33 31
72 52 98 98 97 90 81 92 100 100 82 94 89 82 89 93 83 100 88 98 77 82 81 74 74 72 67 60 60 56 50 52 36 28 33 31 29 35
100 84 69 92 92 94 97 100 93 100 87 79 82 88 92 100 99 88 96 90 77 74 72 75 77 65 65 61 55 55 58 37 30 32 30 27 30 33
100 100 96 75 77 95 98 90 78 73 84 67 88 100 100 100 94 86 84 79 84 83 85 72 77 60 66 58 64 52 36 29 30 28 25 28 28 28
100 74 77 90 89 71 72 71 58 76 81 90 100 100 100 94 79 77 83 95 79 82 87 83 65 65 62 59 52 35 29 30 29 27 30 27 26 28
100 95 90 89 76 61 49 67 73 95 100 94 100 100 89 92 80 94 93 80 96 85 74 69 72 74 56 56 33 30 32 31 29 35 30 26 29 32
99 95 90 86 51 61 90 100 100 100 100 99 99 97 88 100 97 95 95 84 79 77 75 76 73 62 50 36 32 34 30 34 43 46 40 34 30 31
100 100 100 100 100 100 97 100 100 100 100 100 91 100 100 94 98 89 84 75 71 77 82 77 58 49 38 33 35 34 37 43 46 52 51 34 34 33
100 100 100 98 96 100 100 100 100 100 100 98 100 96 98 88 90 85 77 71 75 74 70 54 48 33 32 38 35 43 55 55 50 57 50 38 31 27
100 100 92 99 100 100 100 100 100 100 92 96 98 94 87 86 82 79 68 67 78 56 50 37 32 33 37 31 42 48 45 51 56 46 46 34 22 18
100 100 100 100 100 100 100 100 100 100 95 100 93 86 79 73 74 69 65 75 58 43 35 34 36 38 37 45 41 47 54 48 38 37 37 32 21 16
100 100 100 100 100 100 100 100 100 95 95 88 82 84 77 80 76 71 67 57 45 36 34 40 40 44 47 40 42 49 49 42 35 30 27 24 22 17
100 100 100 100 100 100 100 100 88 96 83 78 89 72 74 85 60 63 60 47 35 36 42 39 47 55 62 70 54 43 42 36 31 28 26 19 16 13
100 100 100 100 100 98 99 88 95 84 70 74 90 72 73 63 67 69 43 34 38 40 43 50 56 67 68 66 60 53 37 32 28 25 20 18 13 10
100 100 98 100 94 88 99 84 76 70 86 69 76 64 77 68 73 40 34 41 43 45 52 58 60 65 67 64 56 48 35 26 22 17 16 14 10 10
100 94 89 87 82 83 87 85 85 81 75 65 68 79 74 59 37 34 47 43 47 54 59 65 66 67 61 55 50 40 34 31 21 15 13 9 7 11
89 82 84 82 97 98 76 92 78 62 65 81 75 78 38 36 35 49 44 49 58 63 69 68 67 57 55 49 40 35 32 25 22 20 12 8 7 7
Wind_Speed
38 42 43 44 43 46 47 46 42 40 42 40 46 47 50 52 54 55 55 56 60 63 67 69 73 76 78 82 85 87 92 93 97 100 101 107 106 104
44 44 44 44 43 42 41 37 37 39 42 46 49 53 57 58 58 59 60 65 67 71 74 76 78 81 85 89 90 94 96 100 105 105 109 113 108 105
47 44 44 44 40 41 37 37 40 43 47 50 55 57 58 59 62 64 66 69 73 77 80 80 83 86 90 91 98 101 104 108 107 111 116 111 109 103
49 49 48 46 45 43 42 42 44 47 51 55 57 59 62 65 68 70 72 74 76 79 82 85 88 91 96 100 103 106 109 108 111 119 113 110 106 96
52 51 50 50 49 48 47 49 53 55 58 57 60 64 67 70 72 73 76 80 81 85 88 91 94 97 101 104 108 111 110 114 119 117 112 107 98 91
56 55 57 54 52 52 52 54 60 62 63 62 65 69 73 75 77 78 81 82 85 89 92 95 98 102 107 110 114 113 116 121 123 115 109 97 91 89
53 54 54 51 53 55 57 64 65 69 65 68 71 74 77 79 81 83 85 87 90 95 99 102 104 110 112 115 116 117 122 126 118 111 100 91 90 90
55 56 55 55 54 58 65 65 70 72 72 73 75 79 81 84 87 87 91 92 98 102 105 108 112 115 117 118 120 123 126 127 115 104 94 90 89 89
59 61 62 61 65 69 70 70 73 74 78 78 80 82 86 88 92 95 96 99 104 108 111 116 118 120 120 122 125 127 131 116 106 97 93 90 88 88
64 65 70 74 77 78 74 75 78 82 82 83 85 88 92 95 97 99 102 106 109 113 116 122 124 122 124 127 129 131 117 108 100 95 91 88 85 88
75 74 73 73 74 74 76 82 87 86 86 88 90 95 96 100 104 106 107 110 117 120 122 124 126 128 128 130 130 116 108 101 98 93 91 86 86 88
70 71 73 76 77 81 86 86 87 90 91 93 98 100 103 104 109 109 112 118 121 126 127 125 128 130 133 132 119 111 103 98 96 95 92 91 90 90
78 74 75 80 85 87 85 86 92 96 99 99 103 105 108 108 112 113 116 123 127 128 128 127 129 133 128 120 109 102 98 96 97 98 98 96 94 93
73 74 70 75 85 89 93 95 100 101 103 107 107 107 109 113 114 117 123 126 126 127 128 131 130 125 115 106 99 97 97 96 96 97 100 97 96 96
85 82 89 96 94 96 98 99 103 108 110 108 110 113 115 117 119 123 127 128 126 129 130 128 123 111 104 94 94 94 93 97 96 97 98 97 93 95
97 98 101 98 101 103 99 99 103 107 109 112 112 117 118 121 125 128 128 124 129 129 126 117 105 102 94 91 89 92 93 92 94 92 93 96 94 96
98 101 102 103 100 97 101 105 109 110 113 114 118 119 122 127 130 129 125 130 129 124 112 104 98 93 92 90 90 91 93 93 91 90 92 95 97 96
98 100 100 95 99 106 108 109 108 113 115 117 119 123 129 128 131 126 129 127 122 107 101 94 92 90 92 91 87 90 93 89 90 92 94 94 97 96
99 99 100 102 109 106 109 110 114 115 117 121 125 130 132 126 128 127 126 117 103 97 91 90 89 89 90 93 97 88 88 89 89 91 94 95 92 95
105 106 110 108 111 108 109 116 118 120 123 125 128 130 126 125 127 125 112 101 95 90 87 85 84 85 89 90 89 93 90 90 88 88 88 94 92 86
109 111 113 110 111 113 115 120 121 124 125 132 126 124 126 124 123 107 99 92 88 85 84 83 84 87 88 87 87 90 96 94 92 88 85 85 83 70
106 108 109 110 114 118 120 123 123 127 129 122 123 125 122 118 102 97 88 85 84 84 83 84 86 86 85 84 87 90 92 94 96 95 89 84 68 55
111 113 114 116 115 120 126 125 129 121 120 125 119 124 105 97 93 86 83 83 82 81 83 85 84 84 84 86 89 89 89 91 93 96 95 84 69 57
Wind_Direction
261 260 264 271 274 276 276 277 279 283 283 289 299 299 302 305 304 305 305 305 304 306 307 308 309 310 311 312 312 312 313 314 315 314 313 312 312 309
258 260 267 272 273 275 277 279 282 283 287 295 297 298 301 302 305 305 305 306 306 307 309 309 310 310 310 311 312 312 314 314 314 313 313 314 311 310
255 260 267 269 271 275 272 278 284 287 291 294 298 299 300 303 304 305 304 305 306 308 308 309 311 311 309 309 312 313 312 314 313 314 313 312 311 309
257 261 267 265 270 272 272 282 289 291 292 296 298 302 304 302 302 303 303 307 309 309 310 309 309 307 309 311 311 311 311 313 315 315 314 311 312 311
257 263 261 264 270 271 272 282 291 295 296 296 298 301 305 304 304 305 305 306 309 308 307 307 307 308 309 309 311 312 313 314 315 314 312 312 312 310
258 261 261 265 266 267 272 282 290 297 296 295 298 300 303 303 303 304 306 307 305 305 306 307 308 308 310 310 311 313 314 315 316 314 313 312 310 311
255 258 262 261 264 268 275 285 294 296 293 295 300 300 302 303 303 304 306 305 306 305 305 307 308 309 310 312 313 313 314 315 314 313 313 312 313 312
253 259 256 256 264 272 281 288 292 293 292 294 297 299 301 302 304 303 304 305 306 305 307 307 308 310 312 312 313 313 315 316 315 313 312 314 312 310
258 257 258 260 270 278 281 285 290 292 292 294 296 300 302 303 299 302 302 304 304 305 307 309 310 311 311 312 313 314 315 314 312 311 313 312 313 311
256 255 263 267 271 275 279 282 289 292 292 294 298 300 300 298 299 299 301 303 304 306 308 309 310 310 312 313 313 314 314 312 311 313 313 314 314 312
257 261 266 268 273 278 280 284 289 292 293 294 296 296 295 296 299 301 302 303 305 307 308 309 310 311 312 311 314 313 312 312 313 314 314 316 315 314
264 265 267 271 274 277 285 286 289 290 292 292 292 293 298 298 299 301 302 305 307 307 309 310 310 311 311 313 314 314 313 314 314 316 317 317 317 317
266 271 273 275 278 282 284 285 285 288 286 290 293 294 296 298 299 302 304 305 308 308 309 309 310 310 312 314 313 312 313 316 318 319 318 318 318 318
267 272 266 271 276 279 281 282 282 285 288 289 292 295 295 299 299 302 304 306 307 308 308 309 310 311 311 311 312 314 315 317 318 318 317 318 318 318
265 264 267 272 277 279 277 281 282 284 287 288 291 293 296 298 301 302 306 305 306 308 308 309 309 310 310 311 312 314 316 316 317 318 317 316 318 317
262 264 268 272 272 276 278 279 281 284 286 289 291 293 296 299 300 304 304 306 306 307 307 309 309 309 309 311 313 314 316 315 315 316 315 317 318 319
263 265 267 270 272 273 276 280 281 284 287 289 292 294 297 299 302 303 305 305 306 307 308 308 309 309 310 312 315 315 314 315 315 316 317 319 320 322
262 264 265 266 271 274 277 279 281 284 287 290 292 296 299 301 302 302 304 305 306 306 307 308 308 310 311 313 314 315 315 315 316 319 320 321 322 323
261 262 265 269 272 275 277 279 283 285 288 292 294 297 298 299 301 302 304 305 304 306 306 307 309 311 313 313 313 314 313 314 318 320 320 320 323 324
260 263 266 270 273 276 278 280 285 286 288 293 294 296 297 299 301 302 303 303 304 304 306 308 309 311 311 313 314 312 313 315 317 319 320 321 325 326
262 264 267 268 271 275 279 280 285 287 291 292 295 295 296 299 301 301 301 302 302 305 307 308 309 311 312 312 311 312 314 317 318 319 321 323 325 324
261 263 266 271 274 277 280 283 287 289 290 291 293 295 296 299 299 301 300 300 304 305 307 308 309 310 310 310 311 312 316 318 318 319 322 325 327 326
265 268 270 275 277 279 281 284 286 287 289 292 293 295 296 297 299 298 299 302 304 305 307 308 309 309 310 310 312 315 316 317 319 320 323 326 327 327